Location: Izdebno
(52.6670°N, 16.2170°E)
Time: 15:28:57
(UTC+01:00)

Vanguard 2 - Pass Details

Date: 31 January 2023
Orbit: 553 x 2927 km, 32.9° (Epoch: 24 March)

Event Time Altitude Azimuth Distance (km) Brightness Sun altitude
Rises 23:11:37 0° 231° (SW) 6,034 - -52.9°
Reaches altitude 10° 23:15:49 10° 223° (SW) 5,282 - -53.1°
Maximum altitude 23:29:38 35° 166° (SSE) 4,048 - -53.8°
Drops below altitude 10° 23:44:09 10° 110° (ESE) 5,554 - -54.3°
Sets 23:48:42 0° 103° (ESE) 6,371 - -54.4°
